Content
SEND FEEDBACK

Daily
Averages
Monthly
Summary
United States of America

WAIKOLU, HAWAII


Home > North America > United States > Hawaii
Elevation: 3550 feet     Latitude: 21 08N     Longitude: 156 55W

WEATHER
 
SELECT A DAY
Number of Records: 156,093;   Date Range: 1/1/95 - 4/21/13
 
SHARE

PRINT THIS DATA

[ ← Previous Day ]
WEATHER ALMANAC - FEBRUARY 13, 2013
[ Next Day → ]
[ °C ]   °F
Weather ElementAverageHighLow
Temperature69.4 °F73.9 °F (9:54 am)66 °F (11:54 pm)
Dewpoint54.8 °F57.2 °F (5:15 am)53.1 °F (7:54 am)
Humidity60.1 %70 % (4:54 am)48 % (9:54 am)
Barometer30.11 in30.16 in (9:54 am)30.04 in (3:54 pm)
Wind Speed9.7 mph13.8 mph (3:54 pm)
Wind Gust23 mph (6:54 am)
Weather ElementAverage
Visibility10 mi
Wind DirectionNE (39.6 °)

Weather ElementTotal
Precipitation---
Cooling Degree Days5 (Base 65)
Growing Degree Days20 (Base 50)
Averaged from 26 records on February 13, 2013
WEATHER CONDITIONS BREAKOUT
WIND DIRECTION BREAKOUT
WEATHER BY HOUR - FEBRUARY 13, 2013
[ °C ]   °F
Local TimeTemperatureDewpointHumidityBarometerVisibilityWind DirectionWind SpeedGust SpeedPrecipitationEventsConditions
1:54 AM66.9 °F54.0 °F63 %30.15 in10.0 miENE (60°)6.9 mphOvercast
2:54 AM66.9 °F55.0 °F66 %30.12 in10.0 miENE (60°)9.2 mphOvercast
3:54 AM66.9 °F54.0 °F63 %30.12 in10.0 miVariable4.6 mphOvercast
4:54 AM66.9 °F57.0 °F70 %30.11 in10.0 miNE (40°)10.4 mph16.1 mph0.00 inRainLight Rain
5:15 AM68.0 °F57.2 °F68 %30.09 in10.0 miNNE (30°)11.5 mph17.3 mph0.00 inOvercast
5:31 AM66.2 °F55.4 °F68 %30.10 in10.0 miNE (40°)10.4 mph20.7 mph0.00 inOvercast
5:54 AM68.0 °F55.9 °F65 %30.11 in10.0 miNE (40°)8.1 mph17.3 mph0.00 inMostly Cloudy
6:54 AM68.0 °F54.0 °F61 %30.12 in10.0 miNE (50°)8.1 mph23.0 mphMostly Cloudy
7:01 AM68.0 °F53.6 °F60 %30.11 in10.0 miNE (50°)10.4 mph16.1 mphMostly Cloudy
7:54 AM69.1 °F53.1 °F57 %30.14 in10.0 miNNE (30°)9.2 mphScattered Clouds
8:54 AM71.1 °F53.1 °F53 %30.14 in10.0 miNE (40°)8.1 mphMostly Cloudy
9:54 AM73.9 °F53.1 °F48 %30.16 in10.0 miNE (50°)11.5 mph18.4 mphScattered Clouds
10:54 AM73.0 °F55.9 °F55 %30.16 in10.0 miNE (50°)12.7 mph20.7 mphMostly Cloudy
11:54 AM73.0 °F55.9 °F55 %30.13 in10.0 miNE (40°)12.7 mph21.9 mphScattered Clouds
12:54 PM73.9 °F54.0 °F50 %30.10 in10.0 miNNE (20°)11.5 mph21.9 mphScattered Clouds
1:54 PM73.9 °F55.9 °F53 %30.07 in10.0 miNE (40°)11.5 mph23.0 mphScattered Clouds
2:54 PM73.0 °F54.0 °F51 %30.05 in10.0 miNE (40°)12.7 mph23.0 mphPartly Cloudy
3:54 PM73.0 °F54.0 °F51 %30.04 in10.0 miNNE (30°)13.8 mph23.0 mphClear
4:54 PM71.1 °F54.0 °F55 %30.06 in10.0 miNE (50°)12.7 mph23.0 mphScattered Clouds
5:54 PM70.0 °F54.0 °F57 %30.07 in10.0 miNE (40°)10.4 mph20.7 mphPartly Cloudy
6:54 PM66.9 °F55.0 °F66 %30.08 in10.0 miNNE (30°)8.1 mph17.3 mphClear
7:54 PM68.0 °F57.0 °F68 %30.11 in10.0 miNE (40°)9.2 mphMostly Cloudy
8:54 PM66.9 °F55.9 °F68 %30.12 in10.0 miNE (40°)6.9 mphPartly Cloudy
9:54 PM66.9 °F55.9 °F68 %30.13 in10.0 miNNE (30°)6.9 mphMostly Cloudy
10:54 PM68.0 °F54.0 °F61 %30.13 in10.0 miNE (40°)8.1 mphMostly Cloudy
11:54 PM66.0 °F53.1 °F63 %30.13 in10.0 miNE (50°)5.8 mphOvercast
Hourly data recorded from PHLU, located miles away from Waikolu, Hawaii







STORIES FROM OUR PARTNERS